DW8785 Weather Reports


time (UTC)temp
C
wind
direction
speed
KPH
gust
KPH
rain 1hr
cm
rain 24hr
cm
rain mn
cm
humidity
%
barometer
mb
20260503021514 13 275 8.0 0.0 0.00 0.00 0.00 52 1016.5
20260503020010 13 267 9.7 0.0 0.00 0.00 0.00 51 1016.4
20260503014506 13 284 11.3 0.0 0.00 0.00 0.00 51 1016.7
20260503013003 13 285 12.9 0.0 0.00 0.00 0.00 50 1016.6
20260503011557 13 264 12.9 0.0 0.00 0.00 0.00 50 1016.7
20260503010054 13 280 11.3 0.0 0.00 0.00 0.00 49 1017.0
20260503004550 14 275 9.7 0.0 0.00 0.00 0.00 47 1016.9
20260503003047 14 359 6.4 0.0 0.00 0.00 0.00 47 1016.9
20260503001546 14 359 6.4 0.0 0.00 0.00 0.00 42 1017.1
20260503000041 15 189 1.6 0.0 0.00 0.00 0.00 38 1017.4
20260502234544 15 188 0.0 0.0 0.00 0.00 0.00 35 1017.4
20260502233037 15 188 0.0 0.0 0.00 0.00 0.00 36 1017.5
20260502231523 15 188 0.0 0.0 0.00 0.00 0.00 37 1017.6
20260502230020 15 188 1.6 0.0 0.00 0.00 0.00 37 1017.9
20260502224516 15 186 0.0 0.0 0.00 0.00 0.00 30 1018.1
20260502223012 15 185 0.0 0.0 0.00 0.00 0.00 30 1018.2
20260502221515 15 185 0.0 0.0 0.00 0.00 0.00 28 1018.3
20260502220011 15 185 0.0 0.0 0.00 0.00 0.00 28 1018.4
20260502214504 15 185 0.0 0.0 0.00 0.00 0.00 30 1018.5
20260502213059 15 185 4.8 0.0 0.00 0.00 0.00 31 1018.5
20260502211556 14 185 1.6 0.0 0.00 0.00 0.00 38 1018.5
20260502210105 13 157 0.0 0.0 0.00 0.00 0.00 48 1018.7
20260502204553 14 155 0.0 0.0 0.00 0.00 0.00 48 1018.8
20260502203049 13 155 0.0 0.0 0.00 0.00 0.00 49 1018.8
20260502201541 13 148 0.0 0.0 0.00 0.00 0.00 50 1018.9
20260502200037 13 136 0.0 0.0 0.00 0.00 0.00 49 1019.2
20260502194535 13 112 0.0 0.0 0.00 0.00 0.00 49 1019.1
20260502193035 13 49 0.0 0.0 0.00 0.00 0.00 48 1019.0
20260502191529 14 37 0.0 0.0 0.00 0.00 0.00 46 1018.9
20260502190030 14 37 0.0 0.0 0.00 0.00 0.00 47 1019.0
20260502184523 13 37 0.0 0.0 0.00 0.00 0.00 48 1018.9
20260502183017 13 37 0.0 0.0 0.00 0.00 0.00 48 1018.8
20260502181526 14 37 0.0 0.0 0.00 0.00 0.00 48 1018.8
20260502163050 15 21 1.6 0.0 0.00 0.00 0.00 43 1019.2
20260502161538 15 32 1.6 0.0 0.00 0.00 0.00 43 1019.3
20260502151529 16 51 3.2 0.0 0.00 0.00 0.00 42 1019.7
20260502123038 15 80 6.4 0.0 0.00 0.00 0.00 40 1021.7
20260502121528 15 161 1.6 0.0 0.00 0.00 0.00 39 1021.7
20260502114520 15 141 3.2 0.0 0.00 0.00 0.00 44 1022.2
20260502113014 15 45 4.8 0.0 0.00 0.00 0.00 40 1022.6
20260502111512 14 65 4.8 0.0 0.00 0.00 0.00 41 1022.7
20260502110014 14 93 3.2 0.0 0.00 0.00 0.00 42 1022.7
20260502104502 15 96 4.8 0.0 0.00 0.00 0.00 45 1022.7
20260502103106 15 27 0.0 0.0 0.00 0.00 0.00 43 1023.1
20260502101610 13 42 6.4 0.0 0.00 0.00 0.00 44 1023.2
20260502100113 14 32 3.2 0.0 0.00 0.00 0.00 42 1023.3
20260502071500 12 49 1.6 0.0 0.00 0.00 0.00 41 1024.2
20260502070058 12 59 1.6 0.0 0.00 0.00 0.00 44 1024.1
20260502064603 12 34 0.0 0.0 0.00 0.00 0.00 42 1024.0
20260502063047 12 335 0.0 0.0 0.00 0.00 0.00 43 1024.0
20260502061546 12 21 0.0 0.0 0.00 0.00 0.00 43 1024.2
20260502060039 11 4 0.0 0.0 0.00 0.00 0.00 43 1024.2
20260502054534 11 3 0.0 0.0 0.00 0.00 0.00 42 1024.1
20260502053030 11 31 0.0 0.0 0.00 0.00 0.00 43 1024.0
20260502051526 11 21 0.0 0.0 0.00 0.00 0.00 43 1024.2
20260502050022 10 17 0.0 0.0 0.00 0.00 0.00 45 1024.0
20260502044517 10 4 0.0 0.0 0.00 0.00 0.00 44 1024.0
20260502043019 10 356 0.0 0.0 0.00 0.00 0.00 44 1024.1
20260502041518 10 13 0.0 0.0 0.00 0.00 0.00 44 1024.1
20260502040012 10 0 0.0 0.0 0.00 0.00 0.00 44 1023.9
20260502034600 9 332 0.0 0.0 0.00 0.00 0.00 44 1024.0
20260502033054 9 323 0.0 0.0 0.00 0.00 0.00 44 1023.9
20260502031550 9 339 0.0 0.0 0.00 0.00 0.00 45 1024.1
20260502030046 9 339 0.0 0.0 0.00 0.00 0.00 44 1024.0
20260502024550 9 337 0.0 0.0 0.00 0.00 0.00 44 1024.0
20260502023038 9 353 0.0 0.0 0.00 0.00 0.00 44 1024.1